Theta_e
322 317 309 305 296 293 290 293 297 298 302 306 307 305 306 309 306 301 329 335 337 338 342 343 345 347 347 346 343 340 337 333 332 330 329 328 327 326 327 327 326 327 327 329 329 329 329 327 327
317 311 306 300 291 287 288 293 294 299 305 306 306 306 307 307 316 325 329 336 338 339 341 343 342 346 346 343 340 337 334 331 329 328 327 325 324 325 326 326 326 326 327 327 328 328 327 326 325
314 308 301 294 290 287 289 294 295 302 304 305 306 308 308 310 320 324 332 339 340 339 340 340 342 345 344 340 338 334 330 328 327 325 324 323 324 324 325 325 324 324 325 326 326 325 324 324 324
312 308 300 292 291 293 293 296 299 302 304 306 306 304 310 319 317 329 338 340 339 338 339 341 342 342 339 337 335 331 328 326 324 323 324 324 324 323 323 323 323 323 324 324 324 325 325 323 322
307 305 295 290 290 292 293 296 299 301 302 303 304 303 307 323 331 336 338 338 336 337 340 340 339 339 337 334 331 328 325 322 321 322 322 322 322 322 322 322 321 322 322 322 323 323 322 323 323
299 302 293 289 291 293 294 296 297 300 302 302 304 304 307 326 330 334 337 336 337 335 335 334 329 332 333 331 327 324 321 320 321 322 321 321 322 321 321 320 321 321 322 322 322 323 323 322 322
299 295 294 291 291 292 294 297 296 298 300 300 306 302 308 321 330 333 334 335 334 333 331 329 327 325 325 326 325 321 318 319 320 320 320 319 319 319 318 317 319 321 320 321 321 324 323 323 322
303 298 291 290 289 292 296 297 299 299 298 303 304 302 306 318 329 331 332 331 329 328 327 325 322 319 318 318 318 317 317 318 318 318 316 315 314 315 314 315 317 319 319 321 322 323 322 322 321
306 297 291 291 292 292 296 296 298 300 300 306 309 308 313 325 328 328 327 327 327 325 323 321 318 316 314 313 309 310 312 313 313 313 313 312 312 312 312 312 315 317 318 319 321 321 321 319 317
301 297 294 296 296 294 295 295 295 296 295 295 308 315 322 324 326 325 325 324 324 323 321 319 316 312 311 308 309 309 310 311 311 312 312 312 311 311 311 310 311 313 314 315 319 320 318 316 316
299 296 297 298 299 298 295 294 295 293 292 294 295 307 306 307 311 319 322 322 323 324 322 319 315 311 308 308 309 309 309 310 312 311 311 311 310 310 310 311 312 313 311 313 315 317 316 316 316
295 298 298 299 300 297 294 295 293 294 294 298 299 301 301 301 302 302 303 307 322 323 321 318 313 309 307 308 307 308 310 310 311 311 311 310 309 309 309 311 312 313 314 315 316 316 316 316 316
298 299 300 302 301 297 298 294 294 294 297 299 301 301 300 300 301 302 303 305 305 320 320 316 311 308 307 307 308 308 309 310 310 310 310 310 309 309 310 311 313 314 316 315 315 315 315 316 315
301 300 300 302 300 298 296 294 295 295 297 298 299 299 300 300 300 301 302 304 306 312 316 311 307 306 307 307 308 309 310 310 310 309 309 310 309 309 310 312 314 315 316 315 315 315 314 314 314
302 297 300 300 300 297 298 294 291 295 297 296 297 299 300 300 301 301 302 302 307 310 308 306 305 306 307 307 308 309 309 308 308 308 309 309 310 310 310 312 313 314 316 315 315 315 315 314 313
297 297 293 299 298 298 297 289 293 295 296 295 297 298 298 299 300 302 303 304 304 305 304 306 306 307 307 308 309 308 307 307 307 307 308 309 310 311 312 313 313 315 316 315 314 314 313 314 313
294 288 291 294 299 296 294 290 292 295 295 294 295 297 298 298 299 300 301 303 305 306 306 306 306 305 306 308 308 307 307 307 307 307 308 309 310 312 314 313 314 315 316 315 313 313 312 312 312
287 287 291 291 295 295 292 289 291 293 294 294 295 296 297 296 296 297 297 299 300 302 303 304 305 305 306 307 307 308 308 308 307 306 307 309 310 311 313 314 314 314 314 314 314 312 313 312 311
291 290 289 293 296 293 291 289 290 292 292 293 295 296 296 295 296 295 295 295 297 297 299 299 301 303 305 306 305 306 306 306 307 307 307 308 310 311 313 313 313 314 313 313 313 312 311 311 310
291 289 289 294 294 293 289 288 289 290 290 293 294 295 295 295 295 293 292 293 293 293 295 296 298 300 302 304 305 306 306 307 307 308 310 311 311 312 313 313 313 313 313 313 312 312 310 311 309
288 288 288 290 291 291 289 287 286 288 291 292 293 294 294 293 292 292 291 290 291 291 293 294 295 296 298 302 306 306 307 308 308 308 309 307 307 306 309 311 312 312 314 312 312 312 311 309 311
285 292 292 292 289 283 289 282 284 286 287 290 291 291 292 291 291 291 290 289 289 289 291 293 292 294 297 299 303 304 302 301 301 303 303 304 303 302 305 307 307 307 308 308 311 313 311 311 308
288 291 291 292 289 287 284 281 285 286 284 286 289 290 290 290 290 288 288 288 288 289 289 290 291 292 294 296 297 298 297 298 298 299 298 299 299 299 301 302 301 301 302 304 303 304 304 307 307
292 290 289 290 288 282 284 283 283 282 286 288 289 289 289 288 288 288 288 288 287 288 288 289 289 289 291 292 293 294 293 294 293 294 294 295 296 296 297 298 298 297 297 299 300 300 300 302 301
291 287 278 276 279 279 283 283 287 287 288 288 287 286 286 287 286 286 285 285 285 285 286 288 287 286 287 287 287 289 289 289 289 289 289 290 290 292 293 293 293 292 292 294 296 296 297 297 297
287 286 280 274 275 278 283 280 285 285 286 289 289 285 284 284 284 284 284 284 283 283 283 284 284 283 284 284 284 284 285 285 285 285 286 286 287 288 291 290 291 290 290 290 291 290 293 293 294
286 284 288 282 276 278 280 282 283 283 282 283 282 282 282 282 282 282 282 282 281 281 281 281 282 282 282 283 283 282 283 283 283 283 284 284 285 286 288 288 287 288 288 288 288 288 289 289 291
288 291 283 284 277 275 279 280 283 280 280 281 281 281 281 282 281 281 281 280 279 279 280 280 280 280 281 281 281 281 281 282 282 282 282 282 283 284 285 286 286 285 286 285 286 285 287 286 287
286 284 285 285 283 277 275 279 283 283 283 281 281 281 281 281 281 280 279 278 278 279 279 279 279 279 279 279 280 280 280 280 280 280 280 281 282 282 283 284 284 284 283 283 283 284 284 283 283
285 286 285 282 278 279 279 279 282 282 284 283 281 281 281 281 280 279 278 277 277 277 277 277 278 278 278 278 278 278 278 279 278 278 279 280 280 281 281 282 282 282 282 281 280 280 281 280 280
Wind_Speed
4 5 2 4 4 4 1 3 3 2 2 2 2 2 6 4 2 3 2 5 7 13 9 11 11 9 8 11 11 12 12 8 9 10 11 11 12 13 13 13 13 14 13 13 13 13 13 13 13
4 5 4 3 4 2 3 2 3 3 4 4 3 3 5 3 2 3 3 3 10 10 8 8 9 11 14 12 13 13 11 9 9 10 10 10 12 12 13 13 13 13 13 14 14 14 14 14 14
5 5 4 3 3 3 3 3 2 1 2 4 4 5 3 2 2 2 1 8 11 8 5 6 10 13 13 12 16 12 9 9 9 10 10 11 10 10 11 12 13 13 13 14 14 14 14 14 14
3 6 2 3 2 4 3 2 3 1 2 3 4 7 4 1 3 1 9 10 10 4 4 10 13 15 14 13 13 10 9 10 10 9 10 10 11 10 12 12 12 13 13 14 13 13 13 13 13
4 3 5 1 4 4 3 3 2 1 2 3 2 4 4 3 1 7 10 9 10 6 9 11 14 14 13 15 12 10 9 10 9 10 11 11 11 11 12 12 13 12 12 12 13 13 14 14 14
4 3 4 1 4 3 4 3 2 2 2 2 5 5 2 1 4 7 8 10 8 10 10 10 11 12 15 11 11 10 9 10 10 10 12 12 11 11 11 13 13 12 12 12 13 13 13 14 14
6 3 5 2 3 2 3 7 2 2 2 4 2 5 2 2 4 7 9 9 10 9 9 8 8 9 15 12 11 9 9 10 9 10 11 11 11 11 10 11 12 12 12 12 13 13 16 14 13
4 3 3 3 3 2 4 5 2 4 3 1 3 4 4 3 6 8 8 9 8 7 7 6 6 7 8 7 10 8 10 9 9 10 11 10 9 10 10 9 11 12 12 12 13 14 13 13 14
3 4 3 1 5 6 5 3 5 3 5 5 6 4 2 7 8 9 7 5 7 6 5 5 6 7 7 6 6 7 8 8 8 7 9 7 5 6 7 8 11 11 12 13 13 13 14 13 12
3 3 7 3 3 4 5 4 5 6 6 9 6 8 7 5 6 7 5 5 4 4 4 5 5 5 5 5 5 5 4 4 4 5 6 5 6 6 6 7 10 11 11 11 13 13 12 10 7
2 4 8 1 4 4 4 5 6 3 7 5 7 6 9 9 8 6 3 2 3 4 4 5 4 4 4 5 3 2 3 3 3 6 5 5 4 4 4 4 4 5 7 6 7 8 6 9 8
5 4 3 6 5 7 4 4 7 9 2 5 6 5 6 11 9 7 6 5 0 4 6 6 5 5 4 4 4 3 3 3 3 4 6 5 4 5 4 4 5 4 4 7 7 5 8 9 9
4 2 3 5 4 5 11 9 7 9 7 7 9 13 13 11 10 7 6 5 6 3 5 7 5 5 3 5 4 4 4 4 4 4 6 4 4 5 4 4 4 4 5 6 7 8 8 9 9
3 2 2 4 5 4 5 3 6 6 6 10 12 14 12 13 12 10 11 7 5 1 6 7 5 6 4 5 5 4 4 4 4 4 5 5 4 4 4 4 4 5 6 6 7 8 8 7 8
4 1 3 3 6 2 7 5 5 5 4 11 11 11 13 14 14 14 11 10 7 8 8 7 7 6 6 6 5 5 5 4 5 5 6 6 5 5 4 4 4 4 6 8 7 9 8 8 8
4 3 7 1 4 2 3 1 4 6 5 9 10 10 12 15 15 14 14 13 12 12 10 8 7 7 6 5 5 5 5 5 4 5 5 7 7 6 4 4 4 5 5 6 7 8 8 8 9
3 3 5 3 3 4 1 3 1 5 4 7 8 9 10 12 15 15 14 13 13 12 10 10 9 7 5 6 5 6 6 5 5 5 5 7 7 6 4 4 5 6 4 6 7 8 7 9 11
5 3 4 5 8 1 4 3 1 4 6 5 7 8 10 11 12 11 13 13 13 13 11 11 8 9 5 4 4 4 5 5 5 5 6 7 6 7 5 5 6 6 5 6 6 7 8 6 10
6 2 7 8 4 4 5 6 6 4 5 4 6 7 9 9 8 10 11 11 11 13 13 12 11 11 7 3 2 3 3 3 5 5 7 7 7 8 7 6 6 6 5 6 7 4 6 5 10
4 5 3 0 4 3 6 4 3 4 3 2 4 5 7 7 8 9 10 10 12 11 11 11 11 11 8 3 2 2 1 2 2 3 7 9 10 11 9 9 8 8 7 9 9 8 5 3 6
2 7 7 5 3 3 4 4 6 4 6 6 3 5 6 7 7 6 8 9 9 11 11 10 9 10 9 8 3 3 3 3 5 6 6 10 11 12 11 11 9 9 8 7 8 9 9 5 4
4 6 7 5 3 2 2 5 5 7 8 9 8 6 6 8 7 6 5 8 9 9 8 9 9 10 10 10 8 10 7 5 5 6 6 7 12 13 12 12 12 10 8 11 9 8 8 7 7
6 5 8 5 9 4 2 1 3 6 8 13 11 9 7 6 8 5 5 7 7 9 8 7 10 12 12 11 10 7 8 5 5 5 8 10 9 12 13 13 12 12 9 11 13 12 12 9 9
8 6 6 5 4 8 7 6 5 8 9 10 13 11 11 9 8 6 6 6 8 6 7 9 11 11 11 11 11 11 11 8 7 9 8 8 8 8 14 14 12 11 11 12 10 11 14 12 11
3 7 2 2 3 5 3 6 12 4 4 11 18 13 10 10 8 7 5 5 7 7 6 8 10 11 10 11 11 11 11 11 11 9 8 9 9 9 12 13 13 11 12 12 12 13 13 13 12
7 7 6 7 4 3 2 7 6 1 2 5 13 13 10 9 7 8 6 6 7 6 6 8 9 9 9 10 11 10 10 8 8 9 8 8 8 8 11 11 12 14 14 13 13 11 11 13 12
5 4 4 6 2 2 5 5 3 3 4 8 12 11 10 9 8 8 7 7 7 6 7 7 8 9 10 9 8 10 10 10 9 10 9 7 9 8 11 12 13 14 14 14 13 11 13 12 12
7 8 3 2 2 5 5 4 7 9 12 10 12 12 10 9 9 8 7 8 6 6 7 8 9 9 8 9 8 8 9 9 9 9 11 11 10 11 11 12 13 13 14 14 13 11 13 13 11
3 4 3 5 5 5 2 6 2 4 14 15 11 10 12 11 9 8 7 7 7 7 7 8 7 8 9 8 8 9 9 9 9 10 10 10 10 11 12 12 13 14 15 14 13 13 14 14 14
3 9 7 5 5 4 1 8 1 5 8 16 14 12 10 10 9 8 8 8 7 7 7 7 6 8 8 7 8 9 9 9 10 10 10 10 11 11 12 12 13 14 14 14 14 14 14 15 15
Wind_Direction
19 314 281 42 56 60 251 252 298 170 104 355 69 140 127 55 95 150 344 192 135 141 154 148 157 147 125 122 101 85 83 66 54 45 37 30 25 19 18 13 8 5 0 356 350 346 343 345 344
3 358 31 71 85 67 261 273 233 186 151 151 75 87 47 73 58 93 119 130 135 143 155 167 166 140 118 110 99 79 74 62 54 45 36 30 20 19 17 15 8 3 358 348 344 345 346 347 342
92 38 32 66 89 195 201 220 261 264 151 165 104 47 88 50 39 57 187 136 135 145 172 139 122 112 106 101 87 74 66 57 47 42 31 24 23 20 18 13 5 0 357 359 358 357 354 349 344
85 11 45 49 256 253 221 295 215 285 65 54 121 71 73 41 349 55 122 127 124 99 104 116 102 95 89 81 83 85 69 59 44 36 33 24 21 16 15 8 2 355 354 355 359 358 352 345 339
61 50 60 15 275 268 258 268 206 89 78 27 19 141 64 31 89 117 114 116 113 82 82 87 83 86 91 77 80 76 68 58 43 29 28 23 16 19 14 7 358 351 354 352 357 353 358 351 347
76 111 96 217 248 264 296 323 293 84 57 60 72 96 72 68 117 103 107 106 100 97 89 88 84 89 79 80 74 71 63 56 42 28 24 21 23 16 13 9 2 3 1 359 6 1 346 351 350
108 123 135 230 256 327 345 319 9 89 77 28 116 77 123 98 115 102 105 98 93 83 91 90 90 85 79 76 67 60 59 56 43 33 27 23 21 16 12 8 358 359 3 2 2 358 3 355 348
96 90 97 310 346 11 327 338 329 46 69 47 6 116 164 163 124 100 95 96 83 77 77 88 92 81 89 78 68 53 51 50 45 37 33 22 19 13 7 2 355 358 1 359 356 2 357 352 349
140 87 106 321 345 310 328 16 2 321 77 49 14 57 20 116 114 98 95 89 101 88 80 70 78 88 91 86 60 46 44 41 36 34 30 25 17 5 1 357 359 360 0 2 2 358 356 351 348
86 109 154 249 324 309 309 47 325 51 27 17 38 30 74 88 107 115 131 134 114 116 91 92 86 93 95 86 68 56 46 35 34 27 31 26 14 7 1 358 356 357 2 360 359 354 349 348 347
34 135 167 321 334 326 331 59 20 342 45 37 315 340 30 50 47 64 79 130 149 122 116 100 101 91 90 93 80 57 39 31 29 27 27 30 28 11 11 359 356 356 2 4 356 347 351 345 348
109 51 164 120 330 350 12 71 61 40 357 304 3 26 40 42 38 32 4 335 196 150 132 106 106 92 72 79 77 62 53 31 25 24 24 19 21 23 18 1 347 359 6 1 356 343 338 343 346
61 146 52 123 89 90 68 61 105 37 9 29 46 44 37 34 21 4 4 358 338 179 128 112 109 90 78 75 70 55 47 34 26 29 24 31 30 29 4 356 346 9 8 10 356 347 342 344 339
173 101 21 7 43 79 107 57 132 9 356 40 44 47 35 34 24 3 15 6 3 10 105 106 95 92 84 75 65 62 48 29 32 27 20 35 28 23 19 351 355 5 9 5 355 351 345 338 341
95 67 7 38 356 98 144 44 48 328 28 49 39 47 44 37 35 27 8 30 42 76 93 90 87 78 74 67 67 62 46 36 36 25 25 25 21 16 4 355 352 341 8 3 1 360 353 347 348
80 54 202 23 14 323 81 265 29 13 57 55 48 46 50 44 42 34 26 36 47 63 59 57 68 74 73 71 71 64 49 43 36 30 21 19 12 7 360 356 357 340 7 6 1 3 357 358 355
11 131 184 188 317 287 78 142 18 41 72 72 64 62 60 51 41 33 29 32 45 53 54 52 41 44 64 72 67 62 57 45 34 32 23 17 10 359 6 2 355 349 350 10 7 2 5 358 354
177 171 190 167 202 85 53 112 120 66 85 78 87 85 75 59 39 26 26 30 39 42 45 47 43 33 37 64 69 57 52 46 37 31 25 20 16 6 10 5 5 1 2 4 2 360 357 356 349
166 150 162 176 226 129 194 165 169 124 88 109 112 103 91 75 57 39 34 32 33 34 35 33 36 21 27 45 49 41 40 18 36 29 24 20 19 12 12 5 3 358 3 5 7 345 342 360 353
155 141 135 181 314 164 182 192 146 155 174 158 140 115 114 101 67 53 34 36 39 31 26 30 28 28 19 21 43 67 70 45 43 18 34 30 31 24 21 17 11 7 358 7 4 13 349 335 12
200 182 172 169 134 47 115 267 193 182 160 158 149 131 110 109 91 62 48 36 35 35 27 29 20 27 24 12 39 57 55 43 43 31 33 33 31 27 18 23 19 13 13 12 5 4 9 357 354
201 202 167 191 80 231 198 272 228 174 177 186 181 168 144 114 97 72 56 46 41 27 27 30 28 30 28 17 41 56 58 58 24 31 37 38 29 26 26 27 24 20 18 14 9 12 9 2 12
223 158 188 161 182 36 271 25 250 133 202 205 190 176 144 129 114 109 77 65 45 32 25 30 42 36 29 33 39 51 60 50 41 36 41 35 30 29 25 28 24 22 19 16 24 19 21 16 16
156 93 56 63 55 240 200 172 246 191 202 172 173 175 152 147 137 120 93 79 62 33 28 43 51 43 38 41 41 54 56 50 46 34 34 29 27 23 25 30 25 24 22 19 24 21 27 21 27
135 119 50 21 232 233 162 196 240 192 187 182 171 164 151 150 146 125 103 82 65 43 32 60 59 53 43 49 47 48 55 54 53 43 39 38 33 28 25 26 28 25 22 24 27 24 30 24 26
196 158 156 195 200 241 91 229 250 53 35 142 157 146 143 144 134 127 121 112 91 64 48 64 66 67 54 56 56 54 55 58 55 49 49 45 41 33 31 37 36 32 31 30 32 33 28 27 28
211 178 162 109 83 37 223 277 219 159 135 136 143 146 154 152 150 135 127 102 95 87 66 71 77 71 60 59 60 57 55 59 58 53 52 48 43 44 39 43 41 37 35 34 37 36 34 33 31
165 163 89 28 160 232 264 265 247 221 199 179 173 166 156 145 143 147 127 116 108 94 85 77 72 73 68 64 63 63 61 60 61 59 56 51 46 46 44 46 43 40 37 34 38 38 33 36 31
141 177 99 134 172 196 254 250 196 209 186 185 177 169 159 162 155 145 129 118 111 98 85 82 75 79 74 68 67 67 60 60 61 60 52 51 52 48 50 49 49 44 38 33 36 39 36 38 34
182 185 161 187 217 226 191 267 54 240 195 174 169 160 157 155 150 139 133 129 119 109 102 89 85 83 73 74 77 73 70 66 63 59 52 49 53 49 50 51 51 49 44 39 39 38 36 36 35